Time,TemperatureF,DewpointF,PressureIn,WindDirection,WindDirectionDegrees,WindSpeedMPH,WindSpeedGustMPH,Humidity,HourlyPrecipIn,Conditions,Clouds,dailyrainin,SolarRadiationWatts/m^2,SoftwareType,DateUTC
2013-01-30 00:01:00,16.0,14.0,-100.00,West,260,7.0,10.0,88,-99.99,,,-99.99,0.000000,,2013-01-30 07:01:00,
2013-01-30 00:21:00,16.0,14.0,-100.00,SW,225,10.0,11.0,89,-99.99,,,-99.99,0.000000,,2013-01-30 07:21:00,
2013-01-30 00:41:00,17.0,15.0,-100.00,West,262,9.0,11.0,91,-99.99,,,-99.99,0.000000,,2013-01-30 07:41:00,
2013-01-30 00:52:00,17.0,15.0,-100.00,West,262,9.0,11.0,91,-99.99,,,-99.99,0.000000,,2013-01-30 07:52:00,
2013-01-30 01:11:00,17.0,15.0,-100.00,WSW,243,12.0,17.0,91,-99.99,,,-99.99,0.000000,,2013-01-30 08:11:00,
2013-01-30 01:32:00,17.0,15.0,-100.00,SW,232,11.0,13.0,91,-99.99,,,-99.99,0.000000,,2013-01-30 08:32:00,
2013-01-30 01:52:00,17.0,15.0,-100.00,WSW,252,9.0,14.0,91,-99.99,,,-99.99,0.000000,,2013-01-30 08:52:00,
2013-01-30 02:00:00,18.0,16.0,-100.00,WSW,246,14.0,19.0,89,-99.99,,,-99.99,0.000000,,2013-01-30 09:00:00,
2013-01-30 02:11:00,18.0,16.0,-100.00,WSW,244,14.0,18.0,90,-99.99,,,-99.99,0.000000,,2013-01-30 09:11:00,
2013-01-30 02:31:00,18.0,16.0,-100.00,WSW,246,14.0,19.0,89,-99.99,,,-99.99,0.000000,,2013-01-30 09:31:00,
2013-01-30 02:41:00,18.0,16.0,-100.00,WSW,246,14.0,19.0,89,-99.99,,,-99.99,0.000000,,2013-01-30 09:41:00,
2013-01-30 02:51:00,18.0,16.0,-100.00,WSW,246,14.0,19.0,89,-99.99,,,-99.99,0.000000,,2013-01-30 09:51:00,
2013-01-30 04:42:00,19.0,16.0,-100.00,West,272,13.0,19.0,85,-99.99,,,-99.99,0.000000,,2013-01-30 11:42:00,
2013-01-30 04:52:00,19.0,16.0,-100.00,West,268,12.0,19.0,85,-99.99,,,-99.99,0.000000,,2013-01-30 11:52:00,
2013-01-30 06:12:00,18.0,16.0,-100.00,WSW,237,9.0,10.0,91,-99.99,,,-99.99,0.000000,,2013-01-30 13:12:00,
2013-01-30 06:22:00,18.0,16.0,-100.00,WSW,244,8.0,10.0,91,-99.99,,,-99.99,0.000000,,2013-01-30 13:22:00,
2013-01-30 06:32:00,19.0,17.0,-100.00,West,260,8.0,11.0,91,-99.99,,,-99.99,0.000000,,2013-01-30 13:32:00,
2013-01-30 06:42:00,19.0,17.0,-100.00,WSW,257,7.0,10.0,91,-99.99,,,-99.99,0.010000,,2013-01-30 13:42:00,
2013-01-30 06:52:00,18.0,16.0,-100.00,SW,223,9.0,10.0,91,-99.99,,,-99.99,0.010000,,2013-01-30 13:52:00,
2013-01-30 07:01:00,18.0,16.0,-100.00,WSW,237,6.0,9.0,92,-99.99,,,-99.99,0.000000,,2013-01-30 14:01:00,
2013-01-30 07:11:00,18.0,16.0,-100.00,WSW,237,6.0,9.0,92,-99.99,,,-99.99,0.000000,,2013-01-30 14:11:00,
2013-01-30 07:22:00,18.0,17.0,-100.00,WSW,254,7.0,8.0,92,-99.99,,,-99.99,0.000000,,2013-01-30 14:22:00,
2013-01-30 07:52:00,19.0,17.0,-100.00,SW,224,8.0,8.0,92,-99.99,,,-99.99,0.320000,,2013-01-30 14:52:00,
2013-01-30 08:22:00,19.0,17.0,-100.00,WSW,251,7.0,9.0,92,-99.99,,,-99.99,3.470000,,2013-01-30 15:22:00,
2013-01-30 08:42:00,19.0,17.0,-100.00,WSW,242,7.0,9.0,92,-99.99,,,-99.99,12.740000,,2013-01-30 15:42:00,
2013-01-30 09:02:00,18.0,17.0,-100.00,SW,215,9.0,9.0,92,-99.99,,,-99.99,26.650000,,2013-01-30 16:02:00,
2013-01-30 09:12:00,19.0,17.0,-100.00,SW,215,8.0,11.0,92,-99.99,,,-99.99,24.780001,,2013-01-30 16:12:00,
2013-01-30 09:22:00,19.0,17.0,-100.00,SW,215,8.0,11.0,92,-99.99,,,-99.99,24.780001,,2013-01-30 16:22:00,
2013-01-30 09:51:00,20.0,18.0,-100.00,SW,227,3.0,5.0,92,-99.99,,,-99.99,51.900002,,2013-01-30 16:51:00,
2013-01-30 10:22:00,20.0,19.0,-100.00,SW,219,5.0,5.0,92,-99.99,,,-99.99,80.599998,,2013-01-30 17:22:00,
2013-01-30 10:31:00,20.0,19.0,-100.00,SW,233,5.0,8.0,93,-99.99,,,-99.99,78.550003,,2013-01-30 17:31:00,
2013-01-30 11:32:00,23.0,22.0,-100.00,WSW,239,20.0,23.0,94,-99.99,,,-99.99,134.300003,,2013-01-30 18:32:00,
2013-01-30 11:42:00,24.0,23.0,-100.00,SW,232,20.0,26.0,94,-99.99,,,-99.99,138.399994,,2013-01-30 18:42:00,
2013-01-30 12:11:00,26.0,25.0,-100.00,WSW,238,23.0,31.0,94,-99.99,,,-99.99,216.300003,,2013-01-30 19:11:00,
2013-01-30 12:22:00,26.0,25.0,-100.00,SW,231,25.0,30.0,94,-99.99,,,-99.99,193.500000,,2013-01-30 19:22:00,
2013-01-30 12:32:00,26.0,25.0,-100.00,WSW,245,26.0,29.0,94,-99.99,,,-99.99,214.000000,,2013-01-30 19:32:00,
2013-01-30 12:52:00,26.0,25.0,-100.00,WSW,254,20.0,30.0,95,-99.99,,,-99.99,109.900002,,2013-01-30 19:52:00,
2013-01-30 13:02:00,26.0,25.0,-100.00,WSW,238,20.0,29.0,95,-99.99,,,-99.99,124.199997,,2013-01-30 20:02:00,
2013-01-30 13:11:00,26.0,25.0,-100.00,WSW,238,20.0,29.0,95,-99.99,,,-99.99,124.199997,,2013-01-30 20:11:00,
2013-01-30 13:32:00,25.0,24.0,-100.00,WSW,246,22.0,26.0,95,-99.99,,,-99.99,113.400002,,2013-01-30 20:32:00,
2013-01-30 13:52:00,26.0,24.0,-100.00,WSW,246,21.0,26.0,94,-99.99,,,-99.99,94.400002,,2013-01-30 20:52:00,
2013-01-30 14:11:00,26.0,24.0,-100.00,WSW,242,21.0,32.0,95,-99.99,,,-99.99,53.169998,,2013-01-30 21:11:00,
2013-01-30 14:31:00,26.0,24.0,-100.00,WSW,244,22.0,27.0,95,-99.99,,,-99.99,48.889999,,2013-01-30 21:31:00,
2013-01-30 14:52:00,26.0,24.0,-100.00,WSW,237,18.0,25.0,95,-99.99,,,-99.99,61.759998,,2013-01-30 21:52:00,
2013-01-30 15:11:00,26.0,25.0,-100.00,WSW,240,20.0,30.0,95,-99.99,,,-99.99,62.830002,,2013-01-30 22:11:00,
2013-01-30 15:41:00,26.0,25.0,-100.00,WSW,244,21.0,30.0,95,-99.99,,,-99.99,51.619999,,2013-01-30 22:41:00,
2013-01-30 15:52:00,27.0,25.0,-100.00,WSW,239,18.0,37.0,95,-99.99,,,-99.99,48.900002,,2013-01-30 22:52:00,
2013-01-30 16:11:00,26.0,25.0,-100.00,SW,230,28.0,37.0,94,-99.99,,,-99.99,65.870003,,2013-01-30 23:11:00,
2013-01-30 16:32:00,27.0,26.0,-100.00,SW,227,26.0,33.0,94,-99.99,,,-99.99,40.410000,,2013-01-30 23:32:00,
2013-01-30 16:42:00,27.0,25.0,-100.00,WSW,242,23.0,34.0,94,-99.99,,,-99.99,36.650002,,2013-01-30 23:42:00,
2013-01-30 17:01:00,27.0,25.0,-100.00,SW,232,28.0,38.0,94,-99.99,,,-99.99,33.119999,,2013-01-31 00:01:00,
2013-01-30 17:11:00,27.0,25.0,-100.00,SW,232,28.0,38.0,94,-99.99,,,-99.99,33.119999,,2013-01-31 00:11:00,
2013-01-30 17:42:00,27.0,25.0,-100.00,WSW,239,25.0,34.0,94,-99.99,,,-99.99,3.420000,,2013-01-31 00:42:00,
2013-01-30 18:01:00,27.0,25.0,-100.00,WSW,244,24.0,31.0,94,-99.99,,,-99.99,1.470000,,2013-01-31 01:01:00,
2013-01-30 18:31:00,27.0,26.0,-100.00,SW,232,27.0,34.0,94,-99.99,,,-99.99,0.220000,,2013-01-31 01:31:00,
2013-01-30 18:41:00,27.0,26.0,-100.00,WSW,237,28.0,38.0,93,-99.99,,,-99.99,0.070000,,2013-01-31 01:41:00,
2013-01-30 18:52:00,27.0,26.0,-100.00,WSW,242,24.0,37.0,93,-99.99,,,-99.99,0.070000,,2013-01-31 01:52:00,
2013-01-30 19:11:00,27.0,25.0,-100.00,WSW,244,21.0,29.0,92,-99.99,,,-99.99,0.120000,,2013-01-31 02:11:00,
2013-01-30 19:32:00,28.0,25.0,-100.00,WSW,253,21.0,29.0,91,-99.99,,,-99.99,0.080000,,2013-01-31 02:32:00,
2013-01-30 19:41:00,28.0,25.0,-100.00,WSW,253,21.0,29.0,91,-99.99,,,-99.99,0.080000,,2013-01-31 02:41:00,
2013-01-30 19:51:00,28.0,25.0,-100.00,WSW,253,21.0,29.0,91,-99.99,,,-99.99,0.080000,,2013-01-31 02:51:00,
2013-01-30 20:02:00,28.0,25.0,-100.00,SW,236,24.0,29.0,87,-99.99,,,-99.99,0.090000,,2013-01-31 03:02:00,
2013-01-30 20:21:00,28.0,25.0,-100.00,WSW,239,25.0,34.0,87,-99.99,,,-99.99,0.030000,,2013-01-31 03:21:00,
2013-01-30 20:41:00,28.0,26.0,-100.00,SW,236,27.0,34.0,89,-99.99,,,-99.99,0.060000,,2013-01-31 03:41:00,
2013-01-30 21:02:00,29.0,25.0,-100.00,SW,234,28.0,39.0,87,-99.99,,,-99.99,0.060000,,2013-01-31 04:02:00,
2013-01-30 21:11:00,29.0,25.0,-100.00,SW,234,28.0,39.0,87,-99.99,,,-99.99,0.060000,,2013-01-31 04:11:00,
2013-01-30 21:31:00,29.0,25.0,-100.00,WSW,241,30.0,37.0,86,-99.99,,,-99.99,0.070000,,2013-01-31 04:31:00,
2013-01-30 21:41:00,29.0,25.0,-100.00,WSW,241,30.0,37.0,86,-99.99,,,-99.99,0.070000,,2013-01-31 04:41:00,
2013-01-30 22:03:00,29.0,25.0,-100.00,SW,235,35.0,49.0,86,-99.99,,,-99.99,0.130000,,2013-01-31 05:03:00,
2013-01-30 22:10:00,28.0,24.0,-100.00,SW,229,31.0,40.0,84,-99.99,,,-99.99,0.010000,,2013-01-31 05:10:00,
2013-01-30 22:41:00,28.0,24.0,-100.00,SW,229,31.0,40.0,84,-99.99,,,-99.99,0.010000,,2013-01-31 05:41:00,
2013-01-30 22:51:00,28.0,24.0,-100.00,SW,229,31.0,40.0,84,-99.99,,,-99.99,0.010000,,2013-01-31 05:51:00,
2013-01-30 23:01:00,28.0,24.0,-100.00,SW,229,31.0,40.0,84,-99.99,,,-99.99,0.010000,,2013-01-31 06:01:00,